Location: Bannatyne
(13.0833°N, 59.5333°W)
Time: 14:23:04
(UTC+00:00)

ATLAS 3B R/B - Pass Details

Date: 18 October 2019
Orbit: 1029 x 1166 km, 63.8° (Epoch: 10 November)

Event Time Altitude Azimuth Distance (km) Brightness Sun altitude
Rises 22:18:43 0° 192° (SSW) 3,919 5.9 -10.7°
Reaches altitude 10° 22:21:30 10° 188° (S) 2,941 5.2 -11.4°
Maximum altitude 22:28:14 54° 112° (ESE) 1,275 2.8 -13.0°
Drops below altitude 10° 22:34:46 10° 36° (NE) 2,853 4.5 -14.6°
Enters shadow 22:36:02 - 34° (NE) 3,296 4.9 -14.9°
